Showing default

TIANPING 3B-01, 61615

Orbit data source: Space-Track

TIANPING 3B-01, 61615 is a payload satellite owned by ZJUNI-SAT (CN) in SSO that was launched on Tue, 22 Oct 2024 UTC via a CHANG ZHENG 6 launch vehicle from the Taiyaun Space Center, China (TSC). Payload-class satellites include a variety of spacecraft equipped with specific instruments for various scientific and technological missions. These include communications satellites like Starlink; space stations such as the ISS; scientific satellites like the Hubble; Earth observation satellites from companies like Planet Labs, Umbra, and HawkEye 360; GPS; miniature CubeSats for education and research; and military/defense satellites.

Loading next visibility...
Identifier
61615, 2024-189B
Orbit
SSO
Country
Flag of CNCN / PRC
Related business
Manufacturer
CASIC/ZJUNI
Mission
Defense Calibration
Bus & Motor
TP-3, Unknown motor
Mass
200 kg wet, ~200 kg dry
Launch date (UTC)
2024-10-22 (1 year ago)
Launch vehicle
CHANG ZHENG 6
Launch site
Taiyaun Space Center, China (TSC)
Object type
Payload
Rocket body
Debris
Shape & HBR
Box, 0.3 m
Radar Cross Section
0.135 m², Medium (>0.1 m² and < 1m²)

Expand to show TLE details & history
Last TLE update: 5 days ago

TLE from 5 days ago
0 TIANPING 3B-01
1 61615U 24189B   26032.85245486  .00002583  00000-0  20725-3 0  9995
2 61615  97.5382  57.1685 0003266  92.6005 267.5594 15.00930131 70149
Epoch: 2026-02-01T20:27Z
TLE epoch observation values (Epoch: 2026-02-01T20:27:32.099Z)
Latitude
0.00002°
Longitude
-21.7714°
Altitude
567.185 km
Speed
7.577 km/s
True Right ascension
03h 48m 40s
True Declination
0° 00' 00"
Sunlit
Object was in daylight at epoch
Visualization orbit readout
Latitude
Unknown
Longitude
Unknown
Altitude
Unknown
Speed
Unknown
Apparent Right ascension
Unknown
Apparent Declination
Unknown
Sunlit
N/A
Visualization observer readout
Local Sidereal Time
05:44:27
Azimuth
Unknown
Elevation
Unknown
Doppler factor
Unknown
Orbital elements
Apogee altitude
563.29 km
Perigee altitude
558.757 km
Semi-major axis
6,939.161 km
Eccentricity
0.00033
Inclination
97.5382°
RAAN
57.1685°
Arg. of periapsis
92.6005°
True anomaly
267.52201°
Mean anomaly
267.5594°
Eccentric anomaly
267.5407°
Mean motion
3.75476 °/min
Orbital period
95.88 mins
BSTAR
0.00020725
Loading maneuver chart data...
Computing Atmospheric mass density...
Loading historical data...
Loading historical data...
Loading historical data...
Loading historical data...
Loading historical data...
Loading historical data...
Loading historical data...
Other satellites on launch #189 in the year 2024 (2024-10-22 UTC)

Documentation

Showing up to 5 results
|